When you browse on this site, cookies collect data to enhance your experience and personalize the content and advertising you see.
Visit our Privacy Policy to learn more. By continuing to use the site, you agree to this use of cookies and data.
  • En España
  • Lista de países
  • Para 7 días
  • Temperatura del agua
  • El tiempo en el mapa
  • Informadores
  • user-avatar
    Iniciar sesión

    Tiempo cada hora Melbourne

    Hoy, 21 Septiembre, Sábado

    Tiempo Temperatura Precipitaciones Viento Presión Humedad
    00:00 +21°C° 0 mm 6 mps 755 mmHg 58%
    01:00 +22°C° 0 mm 7 mps 754 mmHg 56%
    02:00 +21°C° 0 mm 7 mps 754 mmHg 58%
    03:00 +21°C° 0 mm 8 mps 753 mmHg 61%
    04:00 +20°C° 0 mm 8 mps 753 mmHg 58%
    05:00 +20°C° 0 mm 8 mps 753 mmHg 57%
    06:00 +20°C° 0 mm 7 mps 753 mmHg 55%
    07:00 +21°C° 0 mm 7 mps 753 mmHg 54%
    08:00 +21°C° 0 mm 7 mps 753 mmHg 54%
    09:00 +21°C° 0 mm 7 mps 753 mmHg 54%
    10:00 +21°C° 0 mm 6 mps 754 mmHg 42%
    11:00 +20°C° 0.5 mm 6 mps 754 mmHg 50%
    12:00 +18°C° 0.5 mm 7 mps 755 mmHg 57%
    13:00 +16°C° 0.5 mm 8 mps 756 mmHg 65%
    14:00 +17°C° 0.2 mm 7 mps 756 mmHg 62%
    15:00 +17°C° 0.2 mm 6 mps 757 mmHg 59%
    16:00 +17°C° 0.2 mm 6 mps 757 mmHg 56%
    17:00 +15°C° 0.4 mm 6 mps 758 mmHg 63%
    18:00 +14°C° 0.4 mm 5 mps 759 mmHg 70%
    19:00 +12°C° 0.4 mm 5 mps 760 mmHg 77%
    20:00 +11°C° 0.1 mm 4 mps 760 mmHg 78%
    21:00 +11°C° 0.1 mm 4 mps 761 mmHg 79%
    22:00 +10°C° 0.1 mm 3 mps 762 mmHg 80%
    23:00 +10°C° 0 mm 3 mps 762 mmHg 80%

    Mañana, 22 Septiembre, Domingo

    Tiempo Temperatura Precipitaciones Viento Presión Humedad
    00:00 +9°C° 0 mm 3 mps 763 mmHg 80%
    01:00 +8°C° 0 mm 3 mps 763 mmHg 80%
    02:00 +8°C° 0 mm 3 mps 763 mmHg 80%
    03:00 +7°C° 0 mm 3 mps 764 mmHg 80%
    04:00 +7°C° 0 mm 3 mps 764 mmHg 79%
    05:00 +7°C° 0 mm 3 mps 764 mmHg 78%
    06:00 +7°C° 0 mm 3 mps 765 mmHg 77%
    07:00 +7°C° 0 mm 3 mps 765 mmHg 76%
    08:00 +9°C° 0 mm 3 mps 765 mmHg 66%
    09:00 +11°C° 0 mm 3 mps 766 mmHg 56%
    10:00 +12°C° 0 mm 3 mps 766 mmHg 46%
    11:00 +13°C° 0 mm 3 mps 766 mmHg 45%
    12:00 +14°C° 0 mm 4 mps 765 mmHg 44%
    13:00 +14°C° 0 mm 4 mps 765 mmHg 43%
    14:00 +14°C° 0 mm 3 mps 765 mmHg 45%
    15:00 +14°C° 0 mm 3 mps 764 mmHg 47%
    16:00 +14°C° 0 mm 3 mps 764 mmHg 49%
    17:00 +13°C° 0.1 mm 3 mps 764 mmHg 54%
    18:00 +12°C° 0.1 mm 3 mps 765 mmHg 60%
    19:00 +11°C° 0.1 mm 3 mps 765 mmHg 66%
    20:00 +11°C° 0.1 mm 3 mps 765 mmHg 68%
    21:00 +10°C° 0.1 mm 3 mps 765 mmHg 71%
    22:00 +10°C° 0.1 mm 3 mps 765 mmHg 73%
    23:00 +10°C° 0.1 mm 3 mps 765 mmHg 74%

    Pasado mañana, 23 Septiembre, Lunes

    Tiempo Temperatura Precipitaciones Viento Presión Humedad
    00:00 +10°C° 0.1 mm 3 mps 765 mmHg 75%
    01:00 +9°C° 0.1 mm 3 mps 765 mmHg 76%
    02:00 +9°C° 0.5 mm 3 mps 764 mmHg 78%
    03:00 +9°C° 0.5 mm 3 mps 764 mmHg 80%
    04:00 +9°C° 0.5 mm 3 mps 764 mmHg 81%
    05:00 +8°C° 0.1 mm 4 mps 764 mmHg 81%
    06:00 +8°C° 0.1 mm 4 mps 765 mmHg 81%
    07:00 +8°C° 0.1 mm 4 mps 765 mmHg 81%
    08:00 +10°C° 0.1 mm 4 mps 765 mmHg 75%
    09:00 +11°C° 0.1 mm 4 mps 766 mmHg 69%
    10:00 +12°C° 0.1 mm 4 mps 766 mmHg 64%
    11:00 +12°C° 0.1 mm 4 mps 766 mmHg 63%
    12:00 +13°C° 0.1 mm 3 mps 766 mmHg 61%
    13:00 +13°C° 0.1 mm 3 mps 766 mmHg 60%
    14:00 +14°C° 0.1 mm 3 mps 766 mmHg 58%
    15:00 +14°C° 0.1 mm 3 mps 766 mmHg 57%
    16:00 +14°C° 0.1 mm 3 mps 766 mmHg 55%
    17:00 +13°C° 0 mm 3 mps 767 mmHg 62%
    18:00 +13°C° 0 mm 2 mps 767 mmHg 69%
    19:00 +10°C° 0 mm 2 mps 768 mmHg 75%
    20:00 +10°C° 0 mm 2 mps 768 mmHg 76%
    21:00 +9°C° 0 mm 2 mps 768 mmHg 78%
    22:00 +9°C° 0 mm 2 mps 769 mmHg 79%
    23:00 +8°C° 0 mm 2 mps 769 mmHg 80%

    24 Septiembre, Martes

    Tiempo Temperatura Precipitaciones Viento Presión Humedad
    00:00 +8°C° 0 mm 2 mps 769 mmHg 82%
    01:00 +8°C° 0 mm 3 mps 769 mmHg 83%
    02:00 +7°C° 0 mm 3 mps 769 mmHg 85%
    03:00 +7°C° 0 mm 2 mps 769 mmHg 86%
    04:00 +7°C° 0 mm 2 mps 769 mmHg 87%
    05:00 +7°C° 0 mm 2 mps 769 mmHg 86%
    06:00 +7°C° 0 mm 2 mps 769 mmHg 85%
    07:00 +7°C° 0 mm 2 mps 770 mmHg 84%
    08:00 +9°C° 0 mm 3 mps 770 mmHg 75%
    09:00 +10°C° 0 mm 3 mps 769 mmHg 66%
    10:00 +12°C° 0 mm 3 mps 769 mmHg 57%
    11:00 +13°C° 0 mm 3 mps 769 mmHg 54%
    12:00 +14°C° 0 mm 3 mps 769 mmHg 50%
    13:00 +16°C° 0 mm 2 mps 769 mmHg 46%
    14:00 +15°C° 0 mm 2 mps 768 mmHg 49%
    15:00 +15°C° 0 mm 2 mps 768 mmHg 52%
    16:00 +15°C° 0 mm 2 mps 768 mmHg 55%
    17:00 +14°C° 0 mm 2 mps 768 mmHg 60%
    18:00 +13°C° 0 mm 2 mps 769 mmHg 65%
    19:00 +12°C° 0 mm 2 mps 769 mmHg 70%
    20:00 +11°C° 0 mm 1 mps 769 mmHg 72%
    21:00 +11°C° 0 mm 1 mps 770 mmHg 74%
    22:00 +10°C° 0 mm 0 mps 770 mmHg 76%
    23:00 +10°C° 0 mm 1 mps 770 mmHg 78%

    25 Septiembre, Miércoles

    Tiempo Temperatura Precipitaciones Viento Presión Humedad
    00:00 +9°C° 0 mm 1 mps 770 mmHg 81%
    01:00 +8°C° 0 mm 2 mps 770 mmHg 83%
    02:00 +7°C° 0 mm 2 mps 769 mmHg 84%
    03:00 +7°C° 0 mm 2 mps 769 mmHg 84%
    04:00 +7°C° 0 mm 2 mps 769 mmHg 85%
    05:00 +7°C° 0 mm 2 mps 769 mmHg 85%
    06:00 +8°C° 0 mm 2 mps 769 mmHg 84%
    07:00 +8°C° 0 mm 2 mps 769 mmHg 84%
    08:00 +10°C° 0 mm 2 mps 769 mmHg 75%
    09:00 +13°C° 0 mm 1 mps 769 mmHg 66%
    10:00 +15°C° 0 mm 1 mps 769 mmHg 58%
    11:00 +15°C° 0 mm 2 mps 769 mmHg 54%
    12:00 +16°C° 0 mm 2 mps 769 mmHg 50%
    13:00 +17°C° 0 mm 2 mps 768 mmHg 46%
    14:00 +17°C° 0 mm 2 mps 768 mmHg 47%
    15:00 +16°C° 0 mm 2 mps 767 mmHg 49%
    16:00 +16°C° 0 mm 2 mps 767 mmHg 50%
    17:00 +15°C° 0 mm 2 mps 767 mmHg 55%
    18:00 +14°C° 0 mm 1 mps 767 mmHg 59%
    19:00 +13°C° 0 mm 1 mps 768 mmHg 64%
    20:00 +13°C° 0 mm 1 mps 768 mmHg 67%
    21:00 +12°C° 0 mm 1 mps 768 mmHg 70%
    22:00 +11°C° 0 mm 1 mps 768 mmHg 72%
    23:00 +11°C° 0 mm 1 mps 767 mmHg 74%

    26 Septiembre, Jueves

    Tiempo Temperatura Precipitaciones Viento Presión Humedad
    00:00 +10°C° 0 mm 1 mps 767 mmHg 76%
    01:00 +10°C° 0 mm 1 mps 767 mmHg 78%
    02:00 +9°C° 0 mm 2 mps 766 mmHg 78%
    03:00 +9°C° 0 mm 2 mps 766 mmHg 78%
    04:00 +8°C° 0 mm 2 mps 766 mmHg 78%
    05:00 +9°C° 0 mm 2 mps 766 mmHg 77%
    06:00 +9°C° 0 mm 3 mps 766 mmHg 77%
    07:00 +9°C° 0 mm 3 mps 766 mmHg 77%
    08:00 +11°C° 0 mm 3 mps 766 mmHg 69%
    09:00 +13°C° 0 mm 4 mps 765 mmHg 61%
    10:00 +17°C° 0 mm 4 mps 765 mmHg 53%
    11:00 +18°C° 0 mm 4 mps 764 mmHg 51%
    12:00 +19°C° 0 mm 4 mps 764 mmHg 48%
    13:00 +20°C° 0 mm 4 mps 763 mmHg 46%
    14:00 +20°C° 0 mm 4 mps 763 mmHg 47%
    15:00 +20°C° 0 mm 4 mps 762 mmHg 48%
    16:00 +20°C° 0 mm 4 mps 761 mmHg 49%
    17:00 +19°C° 0 mm 4 mps 762 mmHg 54%
    18:00 +18°C° 0 mm 3 mps 762 mmHg 59%
    19:00 +16°C° 0 mm 3 mps 762 mmHg 65%
    20:00 +16°C° 0 mm 3 mps 762 mmHg 66%
    21:00 +14°C° 0 mm 3 mps 762 mmHg 67%
    22:00 +14°C° 0 mm 3 mps 762 mmHg 69%
    23:00 +13°C° 0 mm 4 mps 762 mmHg 68%
    Mostrar más